Regional Weather Roundup
Issued by NWS Charleston, SC

Current Version | Previous Version | Text Only | Print | Product List | Glossary Off
Versions: 1 2 3 4 5 6 7 8 9 10 11 12 13 14 15 16 17 18 19 20 21 22 23 24 25 26 27 28 29 30 31 32 33 34 35 36 37 38 39 40 41 42 43 44 45 46 47 48 49 50
000 ASUS42 KCHS 251128 RWRCHS REGIONAL WEATHER ROUNDUP NATIONAL WEATHER SERVICE CHARLESTON SC 700 AM EDT WED MAY 25 2016 NOTE: "FAIR" INDICATES FEW OR NO CLOUDS BELOW 12,000 FEET WITH NO SIGNIFICANT WEATHER AND/OR OBSTRUCTIONS TO VISIBILITY. NOT ALL STATIONS ARE QUALITY CONTROLLED. USE DATA WITH CAUTION... ESPECIALLY DEWPOINT OBSERVATIONS. SCZ027-030-031-034>040-042>050-251200- ...SOUTHEAST SOUTH CAROLINA... CITY SKY/WX TMP DP RH WIND PRES REMARKS N CHARLESTON PTCLDY 67 64 90 CALM 30.21R WATERFRONT PRK N/A 71 68 90 CALM 30.19R MOUNT PLEASANT FAIR 64 63 94 CALM 30.23R FOG JOHNS ISLAND FAIR 68 66 94 CALM 30.23R PINOPOLIS N/A 70 66 88 CALM 30.13R MONCKS CORNER FAIR 59 55 88 CALM 30.22R SUMMERVILLE FAIR 61 61 100 CALM 30.23R BEAUFORT MCAS PTCLDY 66 63 90 CALM 30.22R BEAUFORT ARPT FAIR 68 66 94 CALM 30.22R FOG HILTON HEAD IS PTCLDY 68 64 88 CALM 30.22R WALTERBORO MOSUNNY 64 64 100 CALM 30.24R ALLENDALE FAIR 63 63 100 CALM 30.21R ...SOUTHERN MIDLANDS AND PEE DEE... CITY SKY/WX TMP DP RH WIND PRES REMARKS GEORGETOWN FAIR 61 57 88 CALM 30.23R KINGSTREE FAIR 61 57 88 CALM 30.22R ORANGEBURG FOG 61 61 100 CALM 30.21R VSB<1/4 BARNWELL FAIR 63 63 100 CALM 30.22R AIKEN FAIR 61 59 94 CALM 30.25R MANNING FAIR 61 59 94 CALM 30.22R COLUMBIA CLEAR 65 62 90 W3 30.20R SUMTER PTCLDY 64 62 94 S2 30.19R FLORENCE CLEAR 61 58 90 CALM 30.21R MYRTLE BEACH CLEAR 63 54 72 CALM 30.22S N MYRTLE BEACH CLEAR 63 61 93 CALM 30.21R $$ GAZ063-065-086>088-099>101-113>116-118-119-134>141-150-251200- ...SOUTHEAST GEORGIA... CITY SKY/WX TMP DP RH WIND PRES REMARKS SAVANNAH ARPT PTCLDY 66 63 90 CALM 30.21R HUNTER AAF PTCLDY 66 66 100 CALM 30.20R FORT STEWART CLEAR 62 60 94 CALM 30.19R STATESBORO CLEAR 65 64 98 CALM 30.22R SYLVANIA SUNNY 66 64 94 CALM 30.22R CLAXTON FAIR 61 61 100 CALM 30.22R FOG ...CSRA...CENTRAL AND FAR SOUTHEAST GEORGIA... CITY SKY/WX TMP DP RH WIND PRES REMARKS THOMSON CLEAR 62 61 97 CALM 30.25S AUGUSTA-BUSH CLEAR 58 58 100 CALM 30.20R AUGUSTA-DANIEL CLEAR 68 58 70 CALM 30.21R SWAINSBORO FAIR 63 61 94 CALM 30.23R VIDALIA CLEAR 64 61 88 CALM 30.22R EASTMAN FAIR 59 59 100 CALM 30.24R HAZLEHURST FAIR 67 63 86 CALM 30.20R ALMA PTCLDY 61 61 100 CALM 30.21R WAYCROSS CLOUDY 65 64 96 CALM 30.22R JESUP FAIR 55 55 100 CALM 30.21R BAXLEY FAIR 64 63 94 CALM 30.22R BRUNSWICK CLEAR 61 59 94 CALM 30.22R SAINT SIMONS CLEAR 67 66 97 CALM 30.20R $$ SCZ027-028-034-036>038-045-046-048>050-GAZ119-141-251200- ...LAKE AND SUPPLEMENTAL COASTAL OBSERVATIONS... STATION/POSITION TIME TEMP WIND PRES WAVE SWELL AIR SEA DIR/SP/G HT/PER HT/PER/DIR (UTC) (F) (DEG/KT/KT) (MB) (FT/S) (FT/S/D) WINYAH BAY 1000 63 320/ 2 1022.0R LAKE MURRAY 1000 69 240/ 3/ 5 1021.7R ACE BASIN NERRS 1000 66 CALM 1023.0R FORT PULASKI 1100 71 75 340/ 2/ 2 1023.5R SAPELO ISLAND 1100 67 40/ 1 1023.0R $$ ANZ835-935-AMZ111-154-330-350-352-354-370-450-454-472-251200- ...C-MAN AND BUOY OBSERVATIONS... STATION/POSITION TIME TEMP WIND PRES WAVE SWELL AIR SEA DIR/SP/G HT/PER HT/PER/DIR (UTC) (F) (DEG/KT/KT) (MB) (FT/S) (FT/S/D) BUOY 41004 1050 75 75 CALM / 2 1023.0R 2/ 9 2/ 9 BUOY 41008 1050 76 75 190/ 6/ 8 1022.5R 2/ 9 2/ 80/ 9 FOLLY BEACH CMAN 1100 72 240/ 1/ 1 1023.3R CAPERS NEARSHORE 1108 74 74 190/ 4/ 6 1023.1R FRIPP NEARSHORE 1108 75 75 220/ 4/ 4 1022.7R STATION/POSITION TIME TEMP WIND PRES WAVE SWELL AIR SEA DIR/SP/G HT/PER HT/PER/DIR (UTC) (F) (DEG/KT/KT) (MB) (FT/S) (FT/S/D) 5E ST. MARYS GA 1021 77 N/A 2/ 8 FRYING PAN BUOY 1100 75 76 260/ 8/ 10 1023.0R BUOY 41025 1050 67 67 280/ 8/ 10 1022.7R 3/ 5 3/200/ 5 CAPE LOOKOUT NC 1100 70 270/ 9/ 11 1022.9R BUOY 41002 1050 74 78 20/ 6/ 8 1023.6R 4/ 8 3/ 50/ 8 BUOY 41010 1020 76 78 80/ 6/ 8 1022.3R ST AUGUSTINE FL 1100 77 78 160/ 11/ 13 1023.1R $$

USA.gov is the U.S. government's official web portal to all federal, state and local government web resources and services.